TimeAKDT,TemperatureF,Dew PointF,Humidity,Sea Level PressureIn,VisibilityMPH,Wind Direction,Wind SpeedMPH,Gust SpeedMPH,PrecipitationIn,Events,Conditions,WindDirDegrees,DateUTC
12:16 AM,60.8,53.6,77,30.21,10.0,NNE,5.8,-,N/A,,Overcast,30,2013-07-18 08:16:00
12:36 AM,60.8,53.6,77,30.21,10.0,NNE,4.6,-,N/A,,Overcast,30,2013-07-18 08:36:00
12:56 AM,59.0,53.6,82,30.21,10.0,NNE,3.5,-,N/A,,Overcast,20,2013-07-18 08:56:00
1:16 AM,60.8,53.6,77,30.22,10.0,Calm,Calm,-,N/A,,Overcast,0,2013-07-18 09:16:00
1:36 AM,59.0,53.6,82,30.22,10.0,NNE,4.6,-,N/A,,Overcast,20,2013-07-18 09:36:00
1:56 AM,59.0,53.6,82,30.21,10.0,NNE,4.6,-,N/A,,Overcast,30,2013-07-18 09:56:00
2:16 AM,59.0,53.6,82,30.22,10.0,Calm,Calm,-,N/A,,Overcast,0,2013-07-18 10:16:00
2:36 AM,59.0,53.6,82,30.22,10.0,Calm,Calm,-,N/A,,Overcast,0,2013-07-18 10:36:00
2:56 AM,59.0,53.6,82,30.21,10.0,Calm,Calm,-,N/A,,Overcast,0,2013-07-18 10:56:00
3:16 AM,59.0,53.6,82,30.22,10.0,Calm,Calm,-,N/A,,Overcast,0,2013-07-18 11:16:00
3:36 AM,59.0,53.6,82,30.21,10.0,Calm,Calm,-,N/A,,Overcast,0,2013-07-18 11:36:00
3:56 AM,59.0,53.6,82,30.21,10.0,Calm,Calm,-,N/A,,Overcast,0,2013-07-18 11:56:00
4:16 AM,59.0,53.6,82,30.21,10.0,Calm,Calm,-,N/A,,Overcast,0,2013-07-18 12:16:00
4:36 AM,57.2,51.8,82,30.22,10.0,WSW,4.6,-,N/A,,Overcast,250,2013-07-18 12:36:00
4:56 AM,57.2,51.8,82,30.22,10.0,West,5.8,-,N/A,,Overcast,270,2013-07-18 12:56:00
5:16 AM,57.2,51.8,82,30.22,8.0,West,5.8,-,N/A,,Overcast,270,2013-07-18 13:16:00
5:36 AM,55.4,51.8,88,30.22,10.0,West,4.6,-,N/A,,Overcast,280,2013-07-18 13:36:00
5:56 AM,55.4,50.0,82,30.22,10.0,WNW,4.6,-,N/A,,Overcast,290,2013-07-18 13:56:00
6:16 AM,55.4,50.0,82,30.22,7.0,Calm,Calm,-,N/A,,Overcast,0,2013-07-18 14:16:00
6:36 AM,55.4,51.8,88,30.22,5.0,Calm,Calm,-,N/A,,Overcast,0,2013-07-18 14:36:00
6:56 AM,57.2,51.8,82,30.22,6.0,ESE,3.5,-,N/A,,Overcast,120,2013-07-18 14:56:00
7:16 AM,57.2,51.8,82,30.22,10.0,Calm,Calm,-,N/A,,Overcast,0,2013-07-18 15:16:00
7:36 AM,57.2,51.8,82,30.22,10.0,Calm,Calm,-,N/A,,Overcast,0,2013-07-18 15:36:00
7:56 AM,57.2,53.6,88,30.21,10.0,East,3.5,-,N/A,,Overcast,90,2013-07-18 15:56:00
8:16 AM,57.2,53.6,88,30.22,10.0,South,3.5,-,N/A,,Overcast,190,2013-07-18 16:16:00
8:36 AM,57.2,53.6,88,30.21,10.0,Calm,Calm,-,N/A,,Overcast,0,2013-07-18 16:36:00
8:56 AM,59.0,53.6,82,30.21,10.0,SSE,3.5,-,N/A,,Overcast,160,2013-07-18 16:56:00
9:16 AM,59.0,53.6,82,30.21,9.0,Calm,Calm,-,N/A,,Overcast,0,2013-07-18 17:16:00
9:36 AM,59.0,53.6,82,30.22,10.0,Calm,Calm,-,N/A,,Overcast,0,2013-07-18 17:36:00
9:56 AM,59.0,53.6,82,30.23,10.0,WNW,3.5,-,N/A,,Overcast,290,2013-07-18 17:56:00
10:16 AM,57.2,51.8,82,30.24,10.0,West,6.9,-,N/A,,Overcast,270,2013-07-18 18:16:00
10:36 AM,57.2,51.8,82,30.24,5.0,West,5.8,-,0.01,,Overcast,260,2013-07-18 18:36:00
10:56 AM,57.2,51.8,82,30.25,9.0,WSW,6.9,-,0.01,,Overcast,250,2013-07-18 18:56:00
11:16 AM,57.2,53.6,88,30.25,10.0,SW,10.4,-,N/A,,Overcast,230,2013-07-18 19:16:00
11:36 AM,59.0,53.6,82,30.26,3.0,SW,10.4,-,N/A,,Overcast,220,2013-07-18 19:36:00
11:56 AM,60.8,53.6,77,30.27,3.0,SW,10.4,-,N/A,,Overcast,220,2013-07-18 19:56:00
12:16 PM,59.0,53.6,82,30.28,5.0,West,10.4,-,N/A,,Overcast,260,2013-07-18 20:16:00
12:36 PM,57.2,53.6,88,30.29,8.0,West,11.5,-,N/A,,Overcast,270,2013-07-18 20:36:00
12:56 PM,57.2,53.6,88,30.30,7.0,West,10.4,-,N/A,,Overcast,270,2013-07-18 20:56:00
1:16 PM,57.2,53.6,88,30.30,5.0,WSW,10.4,-,N/A,,Overcast,250,2013-07-18 21:16:00
1:36 PM,57.2,51.8,82,30.31,4.0,WSW,11.5,-,N/A,,Overcast,250,2013-07-18 21:36:00
1:56 PM,57.2,51.8,82,30.31,5.0,WSW,11.5,-,N/A,,Overcast,250,2013-07-18 21:56:00
2:16 PM,55.4,50.0,82,30.32,5.0,WSW,12.7,-,N/A,,Overcast,240,2013-07-18 22:16:00
2:36 PM,55.4,50.0,82,30.32,8.0,West,13.8,18.4,N/A,,Overcast,260,2013-07-18 22:36:00
2:56 PM,55.4,50.0,82,30.33,10.0,West,12.7,18.4,N/A,,Overcast,260,2013-07-18 22:56:00
3:16 PM,55.4,50.0,82,30.33,10.0,West,13.8,20.7,N/A,,Overcast,260,2013-07-18 23:16:00
3:36 PM,55.4,48.2,77,30.34,10.0,WSW,12.7,-,N/A,,Overcast,250,2013-07-18 23:36:00
3:56 PM,55.4,48.2,77,30.34,10.0,West,11.5,-,N/A,,Overcast,260,2013-07-18 23:56:00
4:16 PM,55.4,48.2,77,30.34,10.0,WSW,9.2,-,N/A,,Overcast,250,2013-07-19 00:16:00
4:36 PM,55.4,48.2,77,30.35,10.0,WSW,9.2,-,N/A,,Overcast,240,2013-07-19 00:36:00
4:56 PM,55.4,48.2,77,30.35,10.0,WSW,10.4,-,N/A,,Overcast,250,2013-07-19 00:56:00
5:16 PM,55.4,48.2,77,30.35,10.0,WSW,9.2,-,N/A,,Overcast,250,2013-07-19 01:16:00
5:36 PM,55.4,48.2,77,30.36,10.0,WSW,8.1,-,N/A,,Overcast,250,2013-07-19 01:36:00
5:56 PM,55.4,48.2,77,30.37,10.0,West,5.8,-,N/A,,Overcast,260,2013-07-19 01:56:00
6:16 PM,55.4,46.4,72,30.37,10.0,SSW,3.5,-,N/A,,Overcast,200,2013-07-19 02:16:00
6:36 PM,55.4,46.4,72,30.37,10.0,South,4.6,-,N/A,,Overcast,190,2013-07-19 02:36:00
6:56 PM,55.4,48.2,77,30.37,10.0,South,6.9,-,N/A,,Overcast,190,2013-07-19 02:56:00
7:16 PM,55.4,46.4,72,30.38,10.0,SSW,4.6,-,N/A,,Overcast,210,2013-07-19 03:16:00
7:36 PM,55.4,48.2,77,30.38,10.0,SSW,4.6,-,N/A,,Overcast,200,2013-07-19 03:36:00
7:56 PM,55.4,48.2,77,30.38,10.0,SW,6.9,-,N/A,,Overcast,230,2013-07-19 03:56:00
8:16 PM,55.4,48.2,77,30.38,10.0,SSW,6.9,-,N/A,,Overcast,210,2013-07-19 04:16:00
8:36 PM,55.4,48.2,77,30.39,10.0,SW,6.9,-,N/A,,Overcast,230,2013-07-19 04:36:00
8:56 PM,53.6,46.4,77,30.39,10.0,SW,8.1,-,N/A,,Overcast,230,2013-07-19 04:56:00
9:16 PM,53.6,46.4,77,30.38,10.0,SSW,6.9,-,N/A,,Overcast,210,2013-07-19 05:16:00
9:36 PM,53.6,46.4,77,30.40,10.0,WSW,8.1,-,N/A,,Overcast,240,2013-07-19 05:36:00
9:56 PM,53.6,46.4,77,30.40,10.0,SW,6.9,-,N/A,,Overcast,230,2013-07-19 05:56:00
10:16 PM,53.6,46.4,77,30.41,10.0,SSW,6.9,-,N/A,,Overcast,210,2013-07-19 06:16:00
10:36 PM,53.6,46.4,77,30.41,10.0,SSW,6.9,-,N/A,,Overcast,210,2013-07-19 06:36:00
10:56 PM,53.6,48.2,82,30.42,10.0,SSW,4.6,-,N/A,,Overcast,210,2013-07-19 06:56:00
11:16 PM,53.6,46.4,77,30.43,10.0,SW,6.9,-,N/A,,Overcast,230,2013-07-19 07:16:00
11:36 PM,53.6,46.4,77,30.43,10.0,SW,6.9,-,N/A,,Overcast,220,2013-07-19 07:36:00
11:56 PM,53.6,46.4,77,30.43,10.0,WSW,6.9,-,N/A,,Overcast,240,2013-07-19 07:56:00